Probability
0 0 0 0 0 0 0 0 0 0 0 0 0 0 0 0 0 0 0 0 3 32 52 65 74 68 68 65 65 65 65 61 55 52 45 45 45 45 32 32 32 29 32 29 19 19 19 16 19
0 0 0 0 0 0 0 0 0 0 0 0 0 0 0 0 0 0 0 0 13 42 58 65 71 65 65 65 65 65 61 58 55 55 55 55 52 45 42 39 39 32 35 29 23 19 23 19 23
0 0 0 0 0 0 0 0 0 0 0 0 0 0 0 0 0 0 3 10 29 45 52 61 65 71 65 65 61 61 61 55 55 55 55 52 52 45 45 35 39 32 32 26 26 23 23 19 19
0 0 0 0 0 0 0 0 0 0 0 0 0 0 0 0 0 0 6 29 39 48 52 58 65 65 65 61 58 61 58 55 55 48 48 48 45 45 35 39 39 26 26 26 26 26 26 19 19
0 0 0 0 0 0 0 0 0 0 0 0 0 0 3 3 3 6 23 29 35 45 48 48 65 61 61 61 58 52 52 45 45 45 42 39 39 35 35 32 35 29 29 26 26 23 16 23 19
0 0 0 0 0 0 0 0 0 0 0 0 0 3 3 6 10 16 32 32 39 42 45 42 55 55 55 48 48 48 42 45 39 39 35 32 29 29 29 32 29 29 26 26 19 16 13 19 13
0 0 0 0 0 0 0 0 0 0 0 0 0 3 10 6 10 23 32 32 35 32 39 35 39 39 39 42 35 39 32 32 32 29 29 26 29 29 26 26 23 16 16 19 19 16 16 16 16
0 0 0 0 0 0 0 0 0 0 0 0 0 6 10 0 10 23 26 23 29 29 26 26 26 26 23 23 23 23 23 26 26 26 23 23 23 19 16 16 16 16 19 16 13 13 16 16 13
0 0 0 0 0 0 0 0 0 0 0 0 0 0 3 6 19 19 23 23 23 23 23 19 19 23 19 19 19 16 16 16 13 16 10 10 10 10 10 10 13 16 13 13 13 13 16 10 3
0 0 0 0 0 0 0 0 0 0 0 0 0 3 0 16 16 16 19 23 23 23 19 19 19 16 16 16 16 16 13 13 6 6 6 6 10 10 10 10 10 10 13 13 13 13 3 0 0
0 0 0 0 0 0 0 0 0 0 0 0 3 3 3 13 16 13 16 16 19 19 19 19 10 10 10 10 6 6 6 6 6 6 6 6 6 6 10 10 6 10 3 0 3 0 0 0 0
0 0 0 0 0 0 0 0 0 0 0 0 3 3 6 10 13 16 13 13 13 16 16 13 10 10 6 6 3 3 3 3 3 6 6 6 6 6 6 6 6 3 0 0 0 0 0 0 0
0 0 0 0 0 0 0 0 0 0 0 3 3 3 6 6 13 6 6 6 10 16 16 13 13 6 3 3 3 3 3 3 3 3 6 6 6 6 6 3 3 0 0 0 0 0 0 0 0
0 0 0 0 0 0 0 0 0 0 0 3 3 6 6 3 6 6 6 6 6 10 13 10 6 6 3 3 3 3 3 3 3 3 3 3 6 3 3 0 0 0 0 0 0 0 0 0 0
0 0 0 0 0 0 0 0 0 0 0 3 3 6 6 3 0 3 6 6 6 6 10 10 6 6 3 3 3 3 3 3 3 3 0 0 0 0 0 0 0 0 0 0 0 0 0 0 0
0 0 0 0 0 0 0 0 0 0 3 3 3 3 6 6 0 0 3 6 6 6 6 6 6 6 6 3 3 3 3 3 3 0 0 0 0 0 0 0 0 0 0 0 0 0 0 0 0
0 0 0 0 0 0 0 0 0 0 0 3 3 3 3 3 3 0 3 3 3 6 3 3 6 6 6 6 3 3 3 0 0 0 0 0 0 0 0 0 0 0 0 0 0 0 0 0 0
0 0 0 0 0 0 0 0 0 0 0 0 0 3 3 3 3 3 0 3 3 0 3 3 6 6 6 6 3 0 0 0 0 0 0 0 0 0 0 0 0 0 0 0 0 0 0 0 0
0 0 0 0 0 0 0 0 0 0 0 0 0 0 0 0 0 0 0 3 3 0 3 3 3 3 6 3 3 3 0 0 0 0 0 0 0 0 0 0 0 0 0 0 0 0 0 0 0
0 0 0 0 0 0 0 0 0 0 0 0 0 0 0 0 0 0 0 0 0 0 0 3 3 3 3 0 0 0 0 0 0 0 0 0 0 0 0 0 0 0 0 0 0 0 0 0 0
0 0 0 0 0 0 0 0 0 0 0 0 0 0 0 0 0 0 0 0 0 0 0 0 3 3 3 0 0 0 0 0 0 0 0 0 0 0 0 0 0 0 0 0 0 0 0 0 0
0 0 0 0 0 0 0 0 0 0 0 0 0 0 0 0 0 0 0 0 0 0 0 0 0 3 3 0 0 0 0 0 0 0 0 0 0 0 0 0 0 0 0 0 0 0 0 0 0
0 0 0 0 0 0 0 0 0 0 0 0 0 0 0 0 0 0 0 0 0 0 0 0 0 0 0 0 0 0 0 0 0 0 0 0 0 0 0 0 0 0 0 0 0 0 0 0 0
0 0 0 0 0 0 0 0 0 0 0 0 0 0 0 0 0 0 0 0 0 0 0 0 0 0 0 0 0 0 0 0 0 0 0 0 0 0 0 0 0 0 0 0 0 0 0 0 0
0 0 0 0 0 0 0 0 0 0 0 0 0 0 0 0 0 0 0 0 0 0 0 0 0 0 0 0 0 0 0 0 0 0 0 0 0 0 0 0 0 0 0 0 0 0 0 0 0
0 0 0 0 0 0 0 0 0 0 0 0 0 0 0 0 0 0 0 0 0 0 0 0 0 0 0 0 0 0 0 0 0 0 0 0 0 0 0 0 0 0 0 0 0 0 0 0 0
0 0 0 0 0 0 0 0 0 0 0 0 0 0 0 0 0 0 0 0 0 0 0 0 0 0 0 0 0 0 0 0 0 0 0 0 0 0 0 0 0 0 0 0 0 0 0 0 0
0 0 0 0 0 0 0 0 0 0 0 0 0 0 0 0 0 0 0 0 0 0 0 0 0 0 0 0 0 0 0 0 0 0 0 0 0 0 0 0 0 0 0 0 0 0 0 0 0
0 0 0 0 0 0 0 0 0 0 0 0 0 0 0 0 0 0 0 0 0 0 0 0 0 0 0 0 0 0 0 0 0 0 0 0 0 0 0 0 0 0 0 0 0 0 0 0 0
0 0 0 0 0 0 0 0 0 0 0 0 0 0 0 0 0 0 0 0 0 0 0 0 0 0 0 0 0 0 0 0 0 0 0 0 0 0 0 0 0 0 0 0 0 0 0 0 0
Height
5780 5782 5785 5788 5790 5791 5795 5802 5808 5812 5815 5818 5821 5823 5826 5830 5833 5838 5840 5841 5842 5845 5847 5849 5851 5853 5854 5856 5858 5859 5860 5862 5863 5864 5865 5866 5867 5868 5868 5869 5870 5870 5871 5871 5871 5871 5871 5871 5871
5772 5775 5777 5779 5780 5783 5790 5798 5802 5806 5808 5811 5814 5817 5821 5824 5827 5831 5833 5836 5838 5841 5843 5845 5847 5849 5851 5853 5855 5856 5858 5859 5860 5862 5863 5864 5865 5866 5866 5867 5868 5868 5869 5869 5869 5869 5869 5869 5869
5764 5766 5768 5770 5772 5778 5786 5792 5796 5798 5800 5804 5808 5811 5815 5819 5822 5825 5828 5830 5833 5836 5838 5841 5843 5846 5848 5850 5852 5853 5855 5856 5857 5859 5860 5861 5862 5863 5864 5865 5865 5866 5866 5867 5867 5867 5867 5867 5867
5755 5757 5759 5761 5765 5773 5779 5785 5788 5790 5794 5797 5801 5805 5809 5813 5816 5820 5822 5825 5828 5831 5833 5836 5838 5841 5843 5846 5848 5850 5851 5853 5854 5855 5857 5858 5859 5860 5861 5862 5863 5863 5864 5864 5864 5864 5864 5864 5864
5746 5748 5750 5752 5758 5766 5772 5777 5780 5782 5786 5791 5794 5799 5803 5807 5810 5813 5816 5819 5822 5825 5828 5830 5833 5836 5838 5841 5843 5845 5847 5849 5850 5852 5853 5855 5856 5857 5858 5859 5860 5860 5861 5861 5861 5861 5862 5862 5862
5736 5738 5741 5745 5752 5759 5764 5768 5771 5774 5778 5783 5787 5791 5796 5800 5803 5806 5809 5812 5816 5819 5822 5825 5828 5830 5833 5836 5838 5840 5843 5844 5846 5848 5849 5851 5852 5853 5854 5855 5856 5857 5857 5858 5858 5858 5858 5858 5858
5728 5730 5733 5739 5745 5751 5757 5760 5763 5766 5770 5775 5778 5783 5788 5792 5795 5799 5802 5806 5809 5812 5815 5819 5822 5825 5827 5830 5832 5835 5837 5839 5841 5843 5845 5847 5848 5849 5850 5851 5852 5853 5853 5854 5854 5854 5855 5855 5855
5718 5721 5725 5731 5737 5743 5749 5751 5754 5757 5761 5766 5769 5774 5780 5785 5788 5791 5795 5798 5802 5805 5808 5812 5815 5818 5821 5824 5826 5829 5832 5834 5836 5838 5840 5842 5843 5845 5846 5847 5848 5849 5849 5850 5850 5851 5851 5851 5851
5707 5712 5717 5724 5729 5735 5739 5741 5745 5748 5752 5756 5761 5766 5772 5776 5780 5784 5787 5791 5794 5798 5801 5805 5808 5811 5815 5817 5820 5823 5825 5828 5830 5833 5835 5837 5839 5840 5841 5843 5844 5844 5845 5845 5846 5846 5846 5846 5846
5697 5702 5710 5716 5721 5725 5729 5732 5736 5739 5743 5748 5753 5758 5762 5767 5771 5776 5780 5783 5787 5791 5794 5797 5801 5804 5807 5810 5813 5816 5819 5822 5824 5827 5829 5831 5833 5835 5836 5837 5839 5840 5840 5841 5841 5841 5842 5842 5842
5688 5694 5702 5706 5710 5714 5718 5723 5726 5730 5735 5740 5745 5750 5754 5758 5762 5767 5771 5775 5779 5783 5786 5790 5793 5797 5800 5803 5807 5810 5813 5815 5818 5820 5823 5825 5827 5829 5831 5832 5833 5834 5835 5836 5836 5836 5837 5837 5837
5679 5686 5691 5696 5700 5704 5708 5713 5717 5722 5728 5732 5736 5740 5745 5750 5754 5759 5763 5767 5771 5775 5779 5783 5786 5789 5793 5796 5800 5803 5806 5809 5812 5814 5816 5819 5821 5823 5825 5827 5828 5829 5830 5831 5831 5831 5831 5831 5831
5670 5676 5680 5685 5689 5693 5698 5702 5707 5713 5718 5722 5726 5731 5736 5742 5746 5750 5754 5758 5762 5767 5771 5775 5778 5781 5785 5789 5792 5795 5799 5802 5805 5807 5810 5812 5814 5817 5819 5820 5822 5823 5824 5825 5825 5826 5826 5826 5826
5661 5665 5670 5674 5678 5683 5687 5693 5698 5705 5709 5713 5718 5723 5728 5733 5737 5742 5745 5749 5754 5758 5762 5766 5770 5774 5777 5781 5784 5788 5791 5794 5797 5800 5803 5805 5808 5810 5812 5814 5815 5816 5817 5819 5819 5820 5820 5820 5820
5651 5655 5659 5663 5668 5673 5677 5683 5690 5696 5699 5704 5709 5714 5719 5723 5728 5733 5737 5741 5745 5749 5753 5757 5762 5766 5770 5773 5777 5780 5783 5787 5790 5793 5795 5798 5801 5803 5805 5807 5809 5810 5811 5812 5813 5813 5813 5813 5813
5641 5644 5648 5655 5658 5663 5668 5674 5681 5685 5690 5695 5700 5705 5710 5714 5719 5723 5727 5731 5735 5740 5744 5748 5752 5757 5762 5765 5769 5772 5776 5779 5782 5785 5788 5791 5794 5796 5798 5800 5802 5803 5804 5805 5806 5807 5807 5807 5807
5631 5634 5639 5646 5649 5653 5658 5665 5672 5675 5680 5686 5691 5696 5701 5706 5710 5714 5718 5722 5726 5730 5735 5739 5744 5748 5753 5757 5761 5764 5768 5771 5774 5778 5780 5783 5786 5789 5791 5793 5795 5796 5797 5798 5799 5800 5800 5800 5800
5624 5627 5632 5637 5641 5645 5650 5656 5662 5666 5671 5676 5682 5687 5692 5697 5702 5706 5709 5713 5717 5722 5727 5731 5735 5740 5745 5749 5753 5756 5759 5763 5767 5770 5773 5776 5779 5781 5784 5786 5787 5789 5790 5791 5792 5793 5793 5792 5792
5617 5620 5624 5629 5632 5637 5642 5648 5652 5656 5661 5667 5672 5678 5683 5689 5693 5697 5701 5705 5710 5714 5719 5723 5727 5732 5736 5740 5744 5747 5751 5755 5759 5762 5765 5768 5771 5773 5776 5778 5780 5781 5783 5784 5784 5785 5785 5785 5785
5610 5613 5617 5621 5625 5628 5633 5638 5643 5647 5652 5658 5663 5669 5674 5679 5684 5689 5693 5698 5702 5707 5711 5715 5719 5724 5728 5732 5735 5738 5742 5746 5750 5753 5756 5759 5762 5765 5768 5770 5772 5773 5775 5775 5776 5777 5777 5777 5777
5603 5607 5610 5614 5617 5620 5625 5629 5634 5638 5643 5649 5654 5660 5665 5670 5676 5681 5685 5690 5694 5699 5703 5708 5712 5716 5720 5723 5727 5730 5733 5737 5741 5744 5748 5751 5754 5757 5760 5762 5764 5765 5766 5767 5768 5768 5769 5769 5769
5598 5601 5604 5607 5610 5613 5617 5621 5627 5631 5636 5641 5647 5652 5657 5662 5667 5672 5676 5681 5686 5691 5695 5699 5703 5708 5712 5715 5719 5722 5725 5729 5733 5736 5740 5743 5746 5749 5751 5753 5755 5756 5758 5759 5760 5760 5760 5760 5760
5592 5595 5598 5601 5604 5607 5611 5614 5620 5623 5628 5634 5640 5645 5650 5654 5659 5663 5668 5673 5678 5682 5686 5691 5695 5699 5704 5707 5711 5714 5717 5721 5725 5728 5732 5735 5738 5740 5743 5745 5747 5748 5750 5751 5751 5752 5752 5752 5752
5587 5590 5593 5595 5598 5601 5606 5608 5613 5618 5623 5629 5634 5638 5643 5647 5652 5656 5660 5664 5669 5673 5678 5683 5687 5691 5696 5699 5703 5706 5709 5713 5716 5720 5724 5727 5730 5732 5735 5737 5738 5740 5742 5742 5743 5743 5743 5743 5743
5583 5586 5588 5590 5592 5596 5601 5602 5608 5613 5618 5622 5626 5631 5635 5640 5644 5649 5652 5656 5661 5665 5670 5674 5679 5683 5687 5691 5695 5698 5701 5705 5708 5712 5716 5719 5721 5724 5726 5728 5730 5732 5733 5734 5734 5735 5735 5735 5735
5580 5582 5585 5586 5588 5592 5595 5598 5604 5608 5611 5615 5619 5623 5627 5631 5636 5640 5644 5648 5652 5657 5662 5666 5670 5674 5678 5682 5686 5690 5693 5696 5700 5704 5707 5710 5713 5715 5718 5720 5722 5723 5725 5726 5726 5726 5726 5727 5726
5576 5578 5581 5582 5583 5587 5590 5594 5599 5602 5605 5608 5612 5615 5619 5624 5628 5632 5636 5640 5644 5648 5653 5657 5661 5666 5670 5674 5677 5681 5684 5688 5692 5695 5698 5702 5705 5707 5710 5712 5713 5715 5716 5718 5718 5718 5718 5718 5718
5574 5575 5577 5578 5579 5581 5585 5589 5594 5597 5600 5603 5606 5609 5613 5616 5620 5624 5628 5632 5636 5640 5644 5648 5652 5656 5661 5665 5669 5672 5676 5679 5683 5687 5690 5693 5696 5699 5701 5703 5705 5707 5708 5709 5710 5710 5710 5710 5710
5571 5572 5573 5574 5576 5578 5580 5587 5589 5591 5594 5597 5600 5602 5605 5609 5612 5616 5620 5623 5627 5631 5635 5639 5643 5647 5652 5656 5660 5664 5667 5671 5674 5678 5681 5684 5688 5690 5693 5695 5696 5698 5700 5701 5701 5701 5702 5702 5702
5566 5568 5569 5571 5573 5574 5576 5583 5583 5585 5588 5591 5593 5596 5598 5601 5604 5608 5611 5615 5619 5622 5626 5630 5634 5639 5643 5647 5651 5654 5658 5662 5665 5669 5672 5676 5679 5681 5684 5686 5688 5690 5691 5692 5693 5693 5693 5694 5693
Wind_Speed
36 37 38 39 40 42 40 36 34 33 33 31 30 29 27 26 25 25 23 23 22 21 20 19 18 17 15 15 14 13 13 12 11 10 9 9 8 8 8 7 7 7 8 8 9 9 9 10 10
38 38 39 41 42 42 40 36 34 34 34 34 32 31 29 28 27 26 25 24 24 23 22 21 20 19 17 16 16 15 14 13 12 12 11 10 10 10 9 9 9 9 9 10 10 11 11 11 11
39 39 41 43 43 42 38 35 35 35 36 35 34 33 31 29 29 28 27 26 26 25 24 23 22 21 20 19 18 16 15 15 14 13 13 12 12 12 11 11 11 11 11 11 12 12 12 12 12
40 41 43 45 44 41 38 36 36 37 37 37 36 35 33 31 30 30 29 28 28 27 27 26 25 24 23 22 20 19 18 17 16 15 15 14 14 13 13 13 13 13 13 13 12 13 13 13 13
41 43 45 46 44 41 38 37 38 38 38 37 37 36 35 33 32 32 31 31 30 29 29 28 27 27 26 25 23 22 21 19 18 17 17 16 16 15 15 15 15 14 14 14 14 14 14 15 15
43 44 45 45 44 40 38 37 38 39 40 39 39 38 37 35 34 33 33 33 32 31 31 30 30 29 28 27 26 25 23 22 20 19 19 18 18 17 17 17 16 16 16 16 16 16 16 16 17
43 45 45 44 43 40 38 38 39 40 40 40 40 39 38 37 36 35 35 35 34 33 33 32 31 31 30 29 28 27 26 24 23 22 21 20 19 19 19 18 18 18 18 18 18 18 18 18 19
43 45 45 44 43 40 37 38 40 41 41 41 42 41 39 38 37 37 36 36 35 34 34 34 33 32 32 31 30 29 28 27 25 24 23 22 22 21 20 20 20 19 19 19 19 19 20 20 20
44 46 45 43 42 40 39 40 41 42 41 42 43 42 40 39 39 38 38 37 37 36 35 35 35 34 34 32 31 30 29 28 27 26 25 24 24 23 22 22 21 21 21 21 21 21 21 21 22
45 47 44 43 42 41 40 41 42 42 42 42 43 42 41 40 39 39 39 39 38 37 37 37 36 36 35 35 33 32 31 30 29 28 27 26 25 25 24 23 23 23 22 22 22 22 23 23 23
45 46 45 44 43 42 42 42 42 43 43 42 42 42 41 40 40 39 39 40 39 39 38 38 37 37 36 36 35 33 32 32 31 30 29 28 27 27 26 25 24 25 24 24 24 24 24 24 25
45 45 45 46 45 44 43 43 44 44 43 42 42 42 42 40 40 40 39 40 40 40 39 39 38 38 38 37 36 35 34 33 32 31 31 30 29 28 28 27 26 26 26 26 25 26 26 26 26
44 45 46 46 46 45 44 44 44 44 43 43 42 43 42 41 40 40 40 40 40 40 40 39 39 39 39 38 37 37 36 35 34 33 32 31 30 30 29 29 28 27 28 27 27 27 27 27 27
42 44 46 46 46 46 45 44 45 43 43 44 43 43 42 42 42 41 40 40 41 41 41 40 39 39 39 39 39 38 37 36 35 35 34 33 32 31 31 30 30 29 29 29 29 29 29 29 29
40 42 45 46 47 46 45 46 45 43 44 45 44 44 43 43 42 41 40 40 41 42 42 42 41 40 40 40 39 39 38 37 36 36 36 35 33 32 32 31 31 31 31 31 30 30 30 30 30
38 41 43 44 45 46 46 46 44 45 44 44 45 45 44 43 43 42 41 41 42 42 42 43 43 42 41 40 40 40 40 39 38 37 37 36 35 34 33 33 33 32 32 32 31 31 31 31 31
37 39 41 41 43 44 45 45 44 45 45 45 45 45 44 43 43 43 42 42 42 42 42 42 42 42 41 41 40 40 40 40 39 38 38 37 36 35 35 34 34 33 33 33 32 32 32 32 32
35 37 38 39 41 43 43 43 44 45 45 45 46 45 44 43 42 42 42 41 42 42 42 42 42 43 43 42 41 41 41 41 41 40 39 38 37 36 36 35 34 34 33 33 33 33 33 34 34
34 35 36 37 38 41 42 42 42 44 44 45 45 44 43 42 43 42 42 42 42 42 41 41 42 42 42 43 42 42 41 41 41 41 40 39 39 38 37 37 36 36 35 35 34 35 34 35 35
32 33 34 35 36 39 42 42 42 42 43 44 43 44 43 42 42 42 43 42 42 43 43 41 42 42 42 42 42 42 42 42 43 43 42 40 40 40 39 38 37 37 37 36 36 36 36 36 36
30 32 32 33 34 37 40 42 42 43 43 43 42 43 43 44 43 43 43 43 42 42 42 42 41 41 42 42 42 41 41 43 43 42 41 40 40 40 39 38 38 38 38 37 36 36 37 37 37
28 30 31 32 33 34 37 40 41 41 42 42 42 42 42 43 43 43 43 42 42 42 42 42 41 41 42 42 43 43 41 42 42 41 40 40 40 40 39 39 38 38 37 37 37 37 37 37 37
25 27 29 30 32 33 34 37 39 39 39 40 41 41 41 41 42 42 42 42 42 42 42 42 42 42 41 41 42 43 42 41 41 40 41 40 39 40 39 39 38 37 37 36 37 37 37 37 37
24 24 26 29 31 32 31 33 36 36 36 37 39 41 40 40 41 41 41 42 42 42 42 43 43 43 43 42 42 43 42 42 41 40 40 40 39 39 39 39 39 38 37 36 36 37 37 38 38
23 23 24 27 29 30 29 31 33 33 34 35 37 38 39 40 41 41 41 41 43 43 42 42 42 42 43 43 42 43 43 43 42 42 40 39 38 38 38 39 39 39 38 37 36 36 36 38 38
21 22 24 26 27 28 28 30 31 32 33 33 35 37 38 39 40 41 41 41 42 42 42 42 43 42 43 42 42 42 42 42 42 42 41 39 38 39 40 39 38 38 39 38 37 36 37 38 38
19 22 24 26 27 27 27 27 28 30 31 32 33 35 37 39 40 40 40 40 41 42 42 43 43 44 43 42 42 42 42 42 42 41 41 40 39 39 39 40 40 39 38 37 36 36 37 37 37
20 21 23 25 26 27 26 26 26 27 28 29 32 34 35 37 39 40 39 39 40 41 42 43 44 44 44 44 43 42 42 42 42 42 42 42 41 39 39 39 39 39 38 38 37 36 37 36 36
20 21 23 24 25 26 26 25 26 28 27 28 29 32 34 35 37 38 38 39 39 41 42 43 43 43 43 44 43 43 43 43 43 43 43 42 41 40 38 38 38 37 37 37 37 37 36 36 37
20 22 23 23 24 25 26 25 25 27 28 28 28 30 32 34 35 37 37 39 40 40 41 42 43 43 42 42 42 43 43 43 44 43 42 42 41 40 39 38 37 38 37 36 37 37 37 37 37
Wind_Direction
241 240 240 240 239 239 238 237 236 235 235 235 235 235 236 237 238 237 235 234 235 234 231 229 230 230 229 229 230 232 232 234 237 241 244 248 251 254 257 263 270 277 283 286 289 290 291 294 297
241 239 240 240 240 240 239 238 236 235 235 235 235 236 236 236 237 238 236 235 234 233 233 231 231 232 232 233 233 235 235 237 241 244 247 251 253 255 258 263 269 276 281 284 287 288 290 291 293
240 239 240 240 240 241 241 238 237 235 235 235 235 236 236 236 237 237 236 236 235 234 233 233 233 234 234 236 236 237 239 240 242 244 248 250 252 256 258 262 268 275 279 282 284 286 287 290 292
242 240 240 240 241 241 240 238 237 237 236 236 236 236 237 237 237 236 236 236 235 235 235 235 235 235 236 238 239 239 240 241 244 246 248 249 252 256 259 263 269 274 277 279 281 283 285 287 290
243 241 241 241 241 241 240 238 238 237 237 236 237 236 236 237 237 237 236 237 236 236 235 236 236 236 237 239 240 241 241 242 245 247 248 250 253 256 259 264 269 273 275 277 279 281 283 286 289
243 244 243 242 242 241 240 239 238 238 237 236 236 236 235 236 237 237 237 238 237 236 236 236 237 237 238 239 240 241 242 243 244 246 248 250 254 257 260 264 269 272 273 275 278 280 282 285 287
243 244 244 244 243 241 239 239 239 238 237 236 236 236 235 235 237 236 237 238 237 237 236 236 237 238 239 239 240 241 242 243 243 244 247 250 254 256 259 263 268 271 273 274 277 279 282 284 286
244 244 244 244 243 241 239 238 239 239 238 236 235 235 234 235 236 237 237 237 237 238 237 236 237 238 239 240 240 240 242 243 243 244 246 249 253 255 258 262 266 269 271 274 276 279 281 282 284
243 243 243 244 243 241 238 237 237 238 237 236 236 236 235 235 236 237 237 237 237 238 238 237 237 238 239 240 240 240 242 243 244 245 246 249 251 254 257 261 264 268 270 273 276 278 281 281 282
244 243 243 243 243 241 239 237 236 237 236 236 236 235 234 235 235 236 237 236 237 237 237 236 236 237 238 239 241 241 242 243 244 245 247 249 250 253 256 259 263 266 269 272 276 278 280 281 282
244 243 242 241 242 241 240 238 237 236 236 235 236 236 235 235 235 236 237 236 236 236 237 237 236 236 237 238 241 242 242 243 245 246 247 249 250 252 255 258 262 265 268 271 274 277 278 279 281
245 242 241 241 240 241 240 239 237 235 235 235 236 235 235 235 235 236 237 237 236 236 236 237 237 237 236 238 239 240 241 242 245 246 247 248 250 252 254 258 261 264 268 271 273 276 278 279 281
247 243 241 241 241 240 240 239 237 235 234 234 235 235 235 235 235 235 235 235 235 235 236 237 237 238 238 237 238 239 241 242 243 245 247 248 249 251 254 257 261 265 267 270 272 274 278 280 281
247 244 242 241 241 240 239 238 237 234 233 233 234 235 235 235 235 234 235 235 235 235 236 236 237 238 238 239 239 239 240 242 243 244 246 248 249 251 254 257 260 263 267 270 272 274 277 279 281
248 245 242 241 240 239 238 237 236 235 233 233 234 235 235 235 235 235 236 236 236 235 236 236 236 237 238 238 239 239 240 242 243 244 246 247 249 251 254 257 260 263 267 270 272 274 276 279 280
247 244 243 240 239 238 237 236 235 235 235 234 234 235 235 235 235 236 236 237 236 236 236 236 235 235 236 238 240 240 241 242 243 245 245 246 248 251 254 257 260 263 266 270 271 273 275 278 280
246 245 243 241 238 237 237 236 233 234 234 235 235 234 235 234 234 234 237 236 235 235 236 236 235 235 236 237 239 240 240 241 243 244 245 246 248 251 253 256 259 262 265 268 271 273 275 277 279
247 246 244 240 238 236 236 235 233 233 234 234 234 235 235 234 234 235 236 236 234 234 235 235 236 237 237 237 238 239 240 241 242 244 245 247 248 250 253 256 259 262 265 269 271 272 274 276 278
249 247 244 240 238 237 235 234 232 233 233 233 233 233 234 233 233 234 234 235 234 234 235 236 236 237 237 237 238 239 239 241 242 243 245 247 249 250 252 255 259 262 264 268 271 271 272 275 278
248 247 245 241 239 238 235 233 233 232 233 233 234 233 233 232 232 233 233 234 235 235 235 236 236 237 237 237 239 239 239 240 241 243 244 246 249 250 253 255 258 262 264 266 270 271 272 274 276
246 246 244 242 240 239 238 235 233 231 232 232 232 232 232 232 232 233 233 232 233 233 234 236 236 236 237 238 239 241 241 241 242 243 245 247 249 251 253 255 258 261 264 266 268 271 272 274 276
246 243 243 242 240 239 239 238 234 234 233 231 232 232 232 233 232 233 232 233 234 233 234 235 236 236 237 238 238 240 242 242 242 242 245 247 250 251 253 256 259 261 262 266 268 270 272 274 276
247 244 243 242 240 240 239 240 236 235 234 232 232 233 233 234 234 233 233 232 234 233 234 236 236 236 237 238 239 240 241 242 241 242 244 247 251 252 254 256 259 262 264 266 268 270 272 273 275
244 242 243 241 240 242 239 241 237 236 235 234 234 234 234 235 235 235 234 232 233 232 235 237 237 237 238 239 240 240 241 241 242 243 244 248 250 253 255 257 258 261 264 265 267 269 271 272 274
239 238 241 241 240 243 241 242 239 237 237 236 236 236 236 236 236 236 236 235 234 232 234 236 237 237 239 240 241 241 241 241 242 243 244 247 250 252 254 257 259 260 262 265 267 268 271 272 274
239 238 238 240 241 242 242 243 241 239 238 238 237 237 237 236 236 237 238 238 236 235 235 236 236 237 238 239 240 240 241 241 242 243 244 246 249 251 254 257 259 260 262 264 266 269 270 271 273
243 240 239 243 243 245 245 244 240 240 240 239 238 238 238 237 237 238 240 240 239 237 236 237 237 237 238 239 239 239 240 242 242 244 245 247 249 252 255 258 260 261 262 263 267 270 271 270 272
245 243 241 243 247 248 247 245 242 242 242 242 240 239 240 240 239 240 242 242 241 239 238 238 238 238 238 238 239 239 240 242 243 244 246 247 249 252 255 257 258 260 261 263 266 269 270 271 272
244 240 241 244 246 249 250 246 243 244 244 244 242 241 241 242 242 241 241 242 242 240 239 239 238 238 238 239 240 241 241 242 243 245 247 247 249 251 254 256 258 259 261 262 264 267 270 272 274
248 244 244 247 246 248 249 248 246 246 245 245 246 244 242 242 241 241 242 242 241 241 240 239 238 238 237 238 240 242 242 243 244 245 246 247 248 250 253 255 257 259 261 263 265 267 269 272 274